RYR31CD EGGP-EIDW

Flight info

Callsign RYR31CD
Flight time 0h 29m
Altitude 24000
Route WAL L10 PENIL L28 LELDO M145 BAGSO BAGSO4L
Aircraft B738/M-SDE2E3FGHIRWXY/LB1

Departure

Time 2026-05-07 19:52
Airport Liverpool John Lennon Airport (EGGP)

Arrival

Time 2026-05-07 20:22
Airport Dublin Airport (EIDW)
Time Latitude Longitude Altitude Speed Heading
2026-05-07 19:32 53.33655 -2.85654 86 ft 0 kts 356°
2026-05-07 19:45 53.33640 -2.85652 84 ft 4 kts 356°
2026-05-07 19:45 53.33619 -2.85650 84 ft 4 kts
2026-05-07 19:46 53.33605 -2.85666 90 ft 4 kts 83°
2026-05-07 19:46 53.33603 -2.85706 85 ft 2 kts 86°
2026-05-07 19:46 53.33603 -2.85709 88 ft 0 kts 86°
2026-05-07 19:48 53.33604 -2.85682 86 ft 6 kts 86°
2026-05-07 19:48 53.33607 -2.85598 84 ft 8 kts 86°
2026-05-07 19:48 53.33592 -2.85519 87 ft 8 kts 152°
2026-05-07 19:49 53.33540 -2.85508 86 ft 8 kts 175°
2026-05-07 19:49 53.33509 -2.85431 84 ft 11 kts 86°
2026-05-07 19:49 53.33517 -2.85264 84 ft 17 kts 85°
2026-05-07 19:49 53.33527 -2.85027 88 ft 23 kts 85°
2026-05-07 19:50 53.33541 -2.84728 86 ft 28 kts 85°
2026-05-07 19:50 53.33556 -2.84403 88 ft 27 kts 85°
2026-05-07 19:50 53.33570 -2.84097 88 ft 25 kts 85°
2026-05-07 19:50 53.33583 -2.83815 89 ft 24 kts 86°
2026-05-07 19:51 53.33595 -2.83547 86 ft 23 kts 85°
2026-05-07 19:51 53.33575 -2.83338 87 ft 18 kts 135°
2026-05-07 19:51 53.33466 -2.83294 84 ft 9 kts 176°
2026-05-07 19:51 53.33438 -2.83318 89 ft 3 kts 259°
2026-05-07 19:52 53.33431 -2.83493 85 ft 47 kts 265°
2026-05-07 19:52 53.33385 -2.84486 86 ft 121 kts 265°
2026-05-07 19:52 53.33304 -2.86194 302 ft 160 kts 264°
2026-05-07 19:52 53.33210 -2.88062 1135 ft 163 kts 262°
2026-05-07 19:53 53.33095 -2.90040 1760 ft 183 kts 262°
2026-05-07 19:53 53.33150 -2.92365 2019 ft 219 kts 288°
2026-05-07 19:53 53.33852 -2.94736 2301 ft 244 kts 295°
2026-05-07 19:53 53.34637 -2.97360 2933 ft 257 kts 294°
2026-05-07 19:54 53.35415 -3.00032 4007 ft 255 kts 293°
2026-05-07 19:54 53.36187 -3.02730 4981 ft 259 kts 292°
2026-05-07 19:54 53.36964 -3.05477 5926 ft 262 kts 292°
2026-05-07 19:54 53.37744 -3.08259 6862 ft 266 kts 291°
2026-05-07 19:55 53.38534 -3.11085 7720 ft 270 kts 291°
2026-05-07 19:55 53.39361 -3.13954 8611 ft 276 kts 296°
2026-05-07 19:55 53.40416 -3.16690 9491 ft 283 kts 302°
2026-05-07 19:55 53.41585 -3.19383 10300 ft 289 kts 303°
2026-05-07 19:56 53.42828 -3.22202 10611 ft 313 kts 303°
2026-05-07 19:56 53.44151 -3.25221 11175 ft 325 kts 303°
2026-05-07 19:56 53.45493 -3.28307 11995 ft 329 kts 303°
2026-05-07 19:56 53.46826 -3.31396 12885 ft 332 kts 303°
2026-05-07 19:57 53.48183 -3.34566 13779 ft 336 kts 303°
2026-05-07 19:57 53.49554 -3.37784 14571 ft 340 kts 303°
2026-05-07 19:57 53.50935 -3.41040 15400 ft 344 kts 303°
2026-05-07 19:57 53.52335 -3.44346 16232 ft 348 kts 302°
2026-05-07 19:58 53.53733 -3.47656 17047 ft 352 kts 302°
2026-05-07 19:58 53.55162 -3.51043 17860 ft 357 kts 302°
2026-05-07 19:58 53.56609 -3.54479 18611 ft 362 kts 302°
2026-05-07 19:58 53.58070 -3.57949 19344 ft 365 kts 302°
2026-05-07 19:59 53.59544 -3.61457 20083 ft 367 kts 302°
2026-05-07 19:59 53.61024 -3.65005 20799 ft 370 kts 300°
2026-05-07 19:59 53.62252 -3.68747 21481 ft 371 kts 290°
2026-05-07 19:59 53.63231 -3.72782 22174 ft 373 kts 288°
2026-05-07 20:00 53.64179 -3.76888 22851 ft 377 kts 288°
2026-05-07 20:00 53.65138 -3.81034 23525 ft 380 kts 288°
2026-05-07 20:00 53.66117 -3.85202 23952 ft 384 kts 289°
2026-05-07 20:00 53.67097 -3.89329 23991 ft 384 kts 289°
2026-05-07 20:01 53.68098 -3.93527 24000 ft 385 kts 289°
2026-05-07 20:01 53.69097 -3.97726 24004 ft 385 kts 289°
2026-05-07 20:01 53.70094 -4.01926 24008 ft 385 kts 289°
2026-05-07 20:01 53.71062 -4.06092 24006 ft 384 kts 285°
2026-05-07 20:02 53.71734 -4.10436 23997 ft 380 kts 276°
2026-05-07 20:02 53.71981 -4.14874 24009 ft 378 kts 271°
2026-05-07 20:02 53.72128 -4.19312 23864 ft 379 kts 270°
2026-05-07 20:02 53.72266 -4.23756 23523 ft 374 kts 270°
2026-05-07 20:03 53.72409 -4.28088 23019 ft 371 kts 271°
2026-05-07 20:03 53.72561 -4.32415 22530 ft 367 kts 271°
2026-05-07 20:03 53.72717 -4.36692 22045 ft 363 kts 271°
2026-05-07 20:03 53.72872 -4.40941 21576 ft 359 kts 271°
2026-05-07 20:04 53.73024 -4.45130 21095 ft 356 kts 271°
2026-05-07 20:04 53.73175 -4.49296 20626 ft 353 kts 271°
2026-05-07 20:04 53.73318 -4.53379 20167 ft 350 kts 271°
2026-05-07 20:04 53.73460 -4.57464 19713 ft 348 kts 271°
2026-05-07 20:05 53.73600 -4.61533 19237 ft 346 kts 271°
2026-05-07 20:05 53.73739 -4.65577 18794 ft 343 kts 271°
2026-05-07 20:05 53.73875 -4.69585 18357 ft 341 kts 271°
2026-05-07 20:05 53.74010 -4.73580 17853 ft 339 kts 271°
2026-05-07 20:06 53.74099 -4.76224 17532 ft 338 kts 271°
2026-05-07 20:06 53.74273 -4.81494 16926 ft 334 kts 271°
2026-05-07 20:06 53.74401 -4.85393 16482 ft 331 kts 271°
2026-05-07 20:06 53.74485 -4.87961 16175 ft 330 kts 271°
2026-05-07 20:07 53.74610 -4.91825 15737 ft 328 kts 271°
2026-05-07 20:07 53.74734 -4.95664 15297 ft 326 kts 271°
2026-05-07 20:07 53.74857 -4.99487 14868 ft 323 kts 271°
2026-05-07 20:07 53.74976 -5.03240 14440 ft 322 kts 271°
2026-05-07 20:08 53.75094 -5.07001 14022 ft 320 kts 271°
2026-05-07 20:08 53.75209 -5.10745 13572 ft 318 kts 270°
2026-05-07 20:08 53.75093 -5.14445 13140 ft 312 kts 257°
2026-05-07 20:08 53.74439 -5.17941 12544 ft 313 kts 245°
2026-05-07 20:09 53.73333 -5.21115 11988 ft 314 kts 234°
2026-05-07 20:09 53.72055 -5.24039 11818 ft 303 kts 233°
2026-05-07 20:09 53.70815 -5.26791 11710 ft 291 kts 232°
2026-05-07 20:10 53.68468 -5.31993 11162 ft 271 kts 233°
2026-05-07 20:10 53.67339 -5.34506 10784 ft 265 kts 233°
2026-05-07 20:10 53.66234 -5.36970 10355 ft 263 kts 233°
2026-05-07 20:10 53.65145 -5.39406 9898 ft 262 kts 233°
2026-05-07 20:11 53.64049 -5.41856 9465 ft 259 kts 232°
2026-05-07 20:11 53.62969 -5.44273 9011 ft 257 kts 232°
2026-05-07 20:11 53.61892 -5.46682 8565 ft 255 kts 232°
2026-05-07 20:11 53.60829 -5.49059 8115 ft 253 kts 232°
2026-05-07 20:12 53.59781 -5.51400 7784 ft 249 kts 232°
2026-05-07 20:12 53.58735 -5.53735 7493 ft 249 kts 232°
2026-05-07 20:12 53.57697 -5.56050 7217 ft 247 kts 232°
2026-05-07 20:12 53.56664 -5.58352 6943 ft 245 kts 232°
2026-05-07 20:13 53.55650 -5.60612 6690 ft 243 kts 232°
2026-05-07 20:13 53.54632 -5.62878 6437 ft 241 kts 232°
2026-05-07 20:13 53.53622 -5.65124 6165 ft 239 kts 232°
2026-05-07 20:13 53.52623 -5.67343 5898 ft 237 kts 232°
2026-05-07 20:14 53.51641 -5.69521 5644 ft 236 kts 232°
2026-05-07 20:14 53.50653 -5.71714 5392 ft 234 kts 232°
2026-05-07 20:14 53.49670 -5.73892 5131 ft 233 kts 232°
2026-05-07 20:14 53.48688 -5.76065 4891 ft 233 kts 232°
2026-05-07 20:15 53.47726 -5.78196 4789 ft 226 kts 232°
2026-05-07 20:15 53.46780 -5.80287 4681 ft 224 kts 232°
2026-05-07 20:15 53.45844 -5.82355 4578 ft 219 kts 232°
2026-05-07 20:15 53.44938 -5.84355 4474 ft 211 kts 232°
2026-05-07 20:16 53.44065 -5.86281 4386 ft 202 kts 232°
2026-05-07 20:16 53.43238 -5.88103 4293 ft 191 kts 232°
2026-05-07 20:16 53.42447 -5.89844 4096 ft 184 kts 232°
2026-05-07 20:16 53.41680 -5.91531 3903 ft 181 kts 232°
2026-05-07 20:17 53.40920 -5.93199 3689 ft 179 kts 233°
2026-05-07 20:17 53.40401 -5.95034 3457 ft 178 kts 266°
2026-05-07 20:17 53.40571 -5.97060 3353 ft 172 kts 274°
2026-05-07 20:17 53.40663 -5.99051 3287 ft 174 kts 271°
2026-05-07 20:18 53.40755 -6.01145 3054 ft 183 kts 272°
2026-05-07 20:18 53.40862 -6.03279 2799 ft 183 kts 273°
2026-05-07 20:18 53.40972 -6.05381 2542 ft 179 kts 273°
2026-05-07 20:18 53.41081 -6.07435 2309 ft 175 kts 273°
2026-05-07 20:19 53.41188 -6.09456 2076 ft 173 kts 272°
2026-05-07 20:19 53.41294 -6.11469 1836 ft 172 kts 272°
2026-05-07 20:19 53.41398 -6.13408 1609 ft 161 kts 272°
2026-05-07 20:19 53.41492 -6.15156 1424 ft 143 kts 272°
2026-05-07 20:20 53.41578 -6.16764 1207 ft 138 kts 271°
2026-05-07 20:20 53.41663 -6.18364 1022 ft 139 kts 273°
2026-05-07 20:20 53.41752 -6.19964 829 ft 136 kts 273°
2026-05-07 20:20 53.41837 -6.21545 674 ft 136 kts 272°
2026-05-07 20:21 53.41922 -6.23134 462 ft 137 kts 272°
2026-05-07 20:21 53.42007 -6.24709 312 ft 136 kts 273°
2026-05-07 20:21 53.42093 -6.26245 214 ft 120 kts 273°
2026-05-07 20:21 53.42147 -6.27271 209 ft 59 kts 275°
2026-05-07 20:22 53.42185 -6.27759 209 ft 33 kts 287°
2026-05-07 20:22 53.42258 -6.28016 215 ft 20 kts 300°
2026-05-07 20:22 53.42332 -6.28127 213 ft 13 kts
2026-05-07 20:22 53.42359 -6.28001 210 ft 12 kts 94°
2026-05-07 20:23 53.42351 -6.27846 214 ft 15 kts 95°
2026-05-07 20:23 53.42339 -6.27628 213 ft 22 kts 95°
2026-05-07 20:23 53.42323 -6.27332 210 ft 28 kts 96°
2026-05-07 20:23 53.42305 -6.27004 215 ft 28 kts 95°
2026-05-07 20:24 53.42288 -6.26689 210 ft 26 kts 95°
2026-05-07 20:24 53.42271 -6.26397 214 ft 24 kts 95°
2026-05-07 20:24 53.42256 -6.26124 210 ft 23 kts 94°
2026-05-07 20:24 53.42310 -6.25887 213 ft 22 kts 46°
2026-05-07 20:25 53.42417 -6.25704 210 ft 22 kts 46°
2026-05-07 20:25 53.42519 -6.25530 213 ft 21 kts 45°
2026-05-07 20:25 53.42620 -6.25358 212 ft 20 kts 45°
2026-05-07 20:25 53.42718 -6.25192 210 ft 20 kts 46°
2026-05-07 20:26 53.42817 -6.25041 210 ft 19 kts 34°
2026-05-07 20:26 53.42898 -6.24905 210 ft 13 kts 47°
2026-05-07 20:26 53.42940 -6.24802 213 ft 8 kts 84°
2026-05-07 20:26 53.42951 -6.24759 218 ft 4 kts 36°
2026-05-07 20:27 53.42975 -6.24751 213 ft 4 kts
2026-05-07 20:27 53.42996 -6.24748 210 ft 1 kts
2026-05-07 20:27 53.42997 -6.24748 210 ft 0 kts